Weather History for Holland, MI

Change the Weather History Date:

Friday, December 20, 2013

  Actual Average Record
Temperature  
Mean Temperature 33 °F 30 °F  
Max Temperature 34 °F 35 °F 56 °F (1949)
Min Temperature 32 °F 25 °F -9 °F (1983)
Degree Days  
Heating Degree Days 32 35  
Month to date heating degree days 749 646  
Since 1 July heating degree days 1985 1869  
Cooling Degree Days 0 0  
Month to date cooling degree days 0 0  
Year to date cooling degree days 813 693  
Moisture  
Dew Point 31 °F    
Average Humidity 93    
Maximum Humidity 100    
Minimum Humidity 85    
Precipitation  
Precipitation 0.26 in 0.07 in 0.81 in (2012)
Month to date precipitation 0.86 1.66  
Year to date precipitation 39.37 35.82  
Sea Level Pressure  
Sea Level Pressure 29.79 in    
Wind  
Wind Speed 8 mph (ENE)    
Max Wind Speed 14 mph    
Max Gust Speed 18 mph    
Visibility 5 miles    
Events Rain    
T = Trace of Precipitation, MM = Missing Value Source: NWS Daily Summary

Daily Weather History Graph

Daily Weather History Graph

Search for Another Location

Airport:

Trip Planner

Search our weather history database for the weather conditions in past years. The results will help you decide how hot, cold, wet, or windy it might be!

Date:

Astronomy

Dec. 20, 2013 Rise Set
Actual Time 8:11 AM EST 5:13 PM EST
Civil Twilight 7:38 AM EST 5:45 PM EST
Nautical Twilight 7:03 AM EST 6:21 PM EST
Astronomical Twilight 6:28 AM EST 6:55 PM EST
Moon 8:37 PM EST 10:01 AM EST
Length of Visible Light 10h 06m
Length of Day
9h 02m
Waning Gibbous, 90% of the Moon is Illuminated
Dec 20
Waning Gibbous
Dec 25
Last Quarter
Jan 1
New
Jan 7
First Quarter
Jan 15
Full

Hourly Weather History & Observations

Time (EST) Temp. Windchill Dew Point Humidity Pressure Visibility Wind Dir Wind Speed Gust Speed Precip Events Conditions
12:27 AM 32.0 °F 23.0 °F 32.0 °F 100% 29.84 in 2.0 mi East 11.5 mph - N/A   Overcast
12:53 AM 32.0 °F 24.2 °F 32.0 °F 100% 29.85 in 2.0 mi East 9.2 mph - N/A   Overcast
1:33 AM 32.0 °F 26.4 °F 32.0 °F 100% 29.83 in 3.0 mi ENE 5.8 mph - N/A   Overcast
1:53 AM 32.0 °F 24.8 °F 32.0 °F 100% 29.83 in 2.5 mi ENE 8.1 mph - 0.00 in Rain Light Freezing Rain
2:47 AM 32.0 °F 25.6 °F 32.0 °F 100% 29.81 in 3.0 mi ENE 6.9 mph - 0.04 in   Overcast
2:53 AM 32.0 °F 26.4 °F 32.0 °F 100% 29.83 in 2.5 mi ENE 5.8 mph - 0.04 in   Overcast
3:29 AM 32.0 °F 24.8 °F 32.0 °F 100% 29.81 in 2.0 mi NE 8.1 mph - 0.00 in Rain Light Freezing Rain
3:43 AM 32.0 °F 25.6 °F 32.0 °F 100% 29.80 in 2.5 mi NE 6.9 mph - 0.00 in   Overcast
3:53 AM 32.0 °F 25.6 °F 32.0 °F 100% 29.82 in 2.5 mi ENE 6.9 mph - 0.00 in   Overcast
4:13 AM 32.0 °F 25.6 °F 32.0 °F 100% 29.79 in 3.0 mi ENE 6.9 mph - N/A   Overcast
4:53 AM 32.0 °F 25.6 °F 32.0 °F 100% 29.81 in 2.5 mi ENE 6.9 mph - N/A   Overcast
5:00 AM 32.0 °F 25.6 °F 32.0 °F 100% 29.78 in 2.0 mi ENE 6.9 mph - 0.00 in Rain Light Freezing Rain
5:12 AM 32.0 °F 25.6 °F 32.0 °F 100% 29.77 in 1.8 mi ENE 6.9 mph - 0.01 in Rain Light Freezing Rain
5:20 AM 33.1 °F 27.7 °F 33.1 °F 100% 29.78 in 2.5 mi ENE 5.8 mph - 0.02 in Rain Light Freezing Rain
5:36 AM 33.1 °F 26.9 °F 33.1 °F 100% 29.78 in 3.0 mi NNE 6.9 mph - 0.03 in Rain Light Freezing Rain
5:53 AM 33.1 °F 24.9 °F 32.0 °F 96% 29.81 in 3.0 mi NE 10.4 mph - 0.04 in Rain Light Freezing Rain
6:53 AM 33.1 °F 26.1 °F 30.9 °F 92% 29.81 in 5.0 mi NE 8.1 mph - 0.02 in Rain Light Freezing Rain
7:32 AM 33.1 °F 27.7 °F 30.9 °F 92% 29.80 in 7.0 mi NE 5.8 mph - 0.00 in   Overcast
7:51 AM 33.8 °F 27.0 °F 30.2 °F 87% 29.80 in 6.0 mi NE 8.1 mph - 0.00 in Rain Light Freezing Rain
7:53 AM 33.1 °F 25.5 °F 30.9 °F 92% 29.82 in 6.0 mi NNE 9.2 mph - 0.00 in Rain Light Freezing Rain
8:06 AM 33.1 °F 25.5 °F 30.9 °F 92% 29.80 in 10.0 mi NE 9.2 mph - 0.00 in   Overcast
8:53 AM 32.0 °F 24.8 °F 30.0 °F 92% 29.82 in 10.0 mi ENE 8.1 mph - 0.00 in   Overcast
9:53 AM 32.0 °F 24.2 °F 28.9 °F 88% 29.84 in 10.0 mi ENE 9.2 mph - 0.01 in   Overcast
10:53 AM 32.0 °F 23.6 °F 28.9 °F 88% 29.85 in 10.0 mi ENE 10.4 mph - N/A   Overcast
11:33 AM 32.0 °F 24.2 °F 30.0 °F 92% 29.82 in 4.0 mi East 9.2 mph - 0.01 in Rain Light Freezing Rain
11:53 AM 32.0 °F 24.2 °F 30.0 °F 92% 29.82 in 5.0 mi East 9.2 mph - 0.01 in Rain Light Freezing Rain
12:18 PM 32.0 °F 23.6 °F 30.0 °F 92% 29.78 in 7.0 mi ENE 10.4 mph - 0.00 in   Overcast
12:30 PM 32.0 °F 23.0 °F 30.0 °F 92% 29.78 in 7.0 mi ENE 11.5 mph - 0.00 in Rain Light Freezing Rain
12:43 PM 32.0 °F 23.6 °F 30.0 °F 92% 29.77 in 10.0 mi ENE 10.4 mph - 0.00 in   Overcast
12:53 PM 33.1 °F 26.1 °F 30.9 °F 92% 29.80 in 10.0 mi ENE 8.1 mph - 0.00 in   Overcast
1:16 PM 33.1 °F 25.5 °F 30.9 °F 92% 29.77 in 5.0 mi ENE 9.2 mph - 0.01 in Rain Light Freezing Rain
1:53 PM 33.1 °F 26.9 °F 30.9 °F 92% 29.79 in 4.0 mi NE 6.9 mph - 0.03 in Rain Light Rain
2:53 PM 33.1 °F 26.1 °F 30.9 °F 92% 29.77 in 10.0 mi ENE 8.1 mph - 0.04 in   Overcast
3:53 PM 33.1 °F 25.5 °F 30.9 °F 92% 29.76 in 4.0 mi NE 9.2 mph - 0.01 in   Overcast
4:32 PM 33.1 °F 25.5 °F 30.9 °F 92% 29.74 in 2.5 mi ENE 9.2 mph - 0.02 in Rain Light Freezing Rain
4:39 PM 33.1 °F 25.5 °F 30.9 °F 92% 29.74 in 3.0 mi East 9.2 mph - 0.03 in Rain Light Freezing Rain
4:53 PM 33.1 °F 24.9 °F 30.9 °F 92% 29.77 in 4.0 mi ENE 10.4 mph - 0.04 in Rain Light Freezing Rain
5:53 PM 33.1 °F 27.7 °F 30.9 °F 92% 29.80 in 6.0 mi East 5.8 mph - 0.02 in Rain Light Freezing Rain
6:17 PM 33.1 °F 27.7 °F 30.9 °F 92% 29.76 in 8.0 mi NE 5.8 mph - 0.00 in   Overcast
6:53 PM 33.1 °F 26.9 °F 32.0 °F 96% 29.79 in 10.0 mi East 6.9 mph - 0.00 in   Overcast
7:53 PM 33.1 °F 27.7 °F 32.0 °F 96% 29.77 in 9.0 mi NE 5.8 mph - N/A   Overcast
8:53 PM 33.1 °F 27.7 °F 32.0 °F 96% 29.76 in 5.0 mi ENE 5.8 mph - N/A   Overcast
9:33 PM 34.0 °F 31.0 °F 32.0 °F 92% 29.76 in 7.0 mi ENE 3.5 mph - N/A   Overcast
9:53 PM 34.0 °F 29.8 °F 32.0 °F 92% 29.78 in 6.0 mi ENE 4.6 mph - N/A   Overcast
10:42 PM 33.1 °F 30.0 °F 32.0 °F 96% 29.77 in 2.5 mi NE 3.5 mph - N/A   Overcast
10:53 PM 33.1 °F 28.7 °F 32.0 °F 96% 29.79 in 2.5 mi NE 4.6 mph - N/A   Overcast
11:48 PM 33.8 °F 30.8 °F 32.0 °F 93% 29.75 in 3.0 mi ENE 3.5 mph - N/A   Overcast
11:53 PM 33.1 °F 30.0 °F 32.0 °F 96% 29.77 in 3.0 mi NE 3.5 mph - N/A   Overcast